Overview Statistics Trail Chart Weather Telemetry Raw packets
 

This is the latest recevied weather packets stored in our database for station/object W5ITZ. If no packets are shown the sender has not sent any weather packets the latest 10 day(s).

<< 74 75 76 77 78 79 80 >>
Time Temp. Humidity Pressure Rain* Wind** Luminosity Snow
1787694216 35° C 45% 1014.4 hPa 0 mm - 546 W/m² -
1787693912 35.56° C 45% 1014.4 hPa 0 mm - 564 W/m² -
1787693607 35.56° C 46% 1014.3 hPa 0 mm - 582 W/m² -
1787693304 35.56° C 46% 1014.4 hPa 0 mm - 601 W/m² -
1787692999 35.56° C 45% 1014.6 hPa 0 mm - 619 W/m² -
1787692695 35.56° C 46% 1014.6 hPa 0 mm - 638 W/m² -
1787692390 35.56° C 45% 1014.4 hPa 0 mm - 655 W/m² -
1787692084 35.56° C 47% 1014.6 hPa 0 mm - 670 W/m² -
1787691784 35.56° C 46% 1014.6 hPa 0 mm - 687 W/m² -
1787691483 35.56° C 46% 1015 hPa 0 mm - 703 W/m² -
1787691182 35.56° C 45% 1014.8 hPa 0 mm - 718 W/m² -
1787690877 36.11° C 44% 1014.8 hPa 0 mm - 734 W/m² -
1787690576 36.11° C 42% 1014.9 hPa 0 mm - 749 W/m² -
1787690272 36.11° C 43% 1015.2 hPa 0 mm - 766 W/m² -
1787689969 36.11° C 42% 1015.1 hPa 0 mm - 781 W/m² -
1787689664 36.11° C 41% 1015.1 hPa 0 mm - 795 W/m² -
1787689359 36.11° C 41% 1015.3 hPa 0 mm - 807 W/m² -
1787689059 36.11° C 40% 1015.1 hPa 0 mm - 821 W/m² -
1787688755 36.11° C 39% 1015.3 hPa 0 mm - 838 W/m² -
1787688450 36.67° C 38% 1015.6 hPa 0 mm - 846 W/m² -
1787688144 36.11° C 41% 1015.2 hPa 0 mm - 862 W/m² -
1787687841 36.11° C 39% 1015.4 hPa 0 mm - 873 W/m² -
1787687535 36.67° C 41% 1015.6 hPa 0 mm - 880 W/m² -
1787687231 36.11° C 42% 1015.6 hPa 0 mm - 889 W/m² -
1787686926 36.11° C 42% 1015.5 hPa 0 mm - 898 W/m² -

* Rain latest hour (hover to see other rain measurements)
** Current wind speed in m/s (hover to see current wind gust speed)